| time (UTC) | temp F | wind direction | speed MPH | gust MPH | rain 1hr in | rain 24hr in | rain mn in | humidity % | barometer mb |
| 20260503060114 | 50 | 106 | 0.0 | 0.0 | 0.00 | 1.97 | 0.00 | 96 | 1009.1 |
| 20260503054112 | 50 | 106 | 0.0 | 0.0 | 0.00 | 1.97 | 0.00 | 96 | 1009.0 |
| 20260503053125 | 50 | 106 | 0.0 | 0.0 | 0.00 | 1.97 | 0.00 | 96 | 1008.9 |
| 20260503052136 | 50 | 106 | 0.0 | 0.0 | 0.00 | 1.97 | 0.00 | 96 | 1008.8 |
| 20260503051123 | 50 | 106 | 0.0 | 0.0 | 0.00 | 1.97 | 0.00 | 96 | 1009.0 |
| 20260503050136 | 50 | 106 | 0.0 | 0.0 | 0.00 | 1.97 | 0.00 | 96 | 1008.9 |
| 20260503045122 | 50 | 106 | 0.0 | 0.0 | 0.00 | 1.97 | 0.00 | 96 | 1008.9 |
| 20260503044128 | 50 | 106 | 0.0 | 0.0 | 0.00 | 1.97 | 0.00 | 96 | 1008.8 |
| 20260503043121 | 50 | 106 | 0.0 | 0.0 | 0.00 | 1.97 | 0.00 | 96 | 1008.7 |
| 20260503042136 | 50 | 106 | 0.0 | 0.0 | 0.00 | 1.97 | 0.00 | 96 | 1008.8 |
| 20260503041120 | 51 | 106 | 0.0 | 0.0 | 0.00 | 1.97 | 0.00 | 96 | 1008.9 |
| 20260503040132 | 51 | 106 | 0.0 | 1.0 | 0.00 | 1.97 | 0.00 | 96 | 1008.9 |
| 20260503035117 | 51 | 117 | 0.0 | 0.0 | 0.00 | 1.97 | 0.00 | 96 | 1009.0 |
| 20260503034157 | 51 | 117 | 0.0 | 0.0 | 0.00 | 1.97 | 0.00 | 96 | 1009.0 |
| 20260503033120 | 51 | 116 | 0.0 | 0.0 | 0.00 | 1.97 | 0.00 | 96 | 1009.1 |
| 20260503032135 | 51 | 117 | 0.0 | 0.0 | 0.00 | 1.97 | 0.00 | 96 | 1009.1 |
| 20260503031118 | 51 | 117 | 0.0 | 0.0 | 0.00 | 1.97 | 0.00 | 96 | 1009.2 |
| 20260503030131 | 51 | 117 | 0.0 | 0.0 | 0.00 | 1.97 | 0.00 | 96 | 1009.3 |
| 20260503025122 | 51 | 117 | 0.0 | 0.0 | 0.00 | 1.97 | 0.00 | 96 | 1009.2 |
| 20260503024134 | 51 | 117 | 0.0 | 0.0 | 0.00 | 1.97 | 0.00 | 96 | 1009.3 |
| 20260503023127 | 51 | 117 | 0.0 | 0.0 | 0.00 | 1.97 | 0.00 | 96 | 1009.4 |
| 20260503022113 | 51 | 117 | 0.0 | 0.0 | 0.00 | 1.97 | 0.00 | 96 | 1009.4 |
| 20260503021146 | 51 | 117 | 0.0 | 0.0 | 0.00 | 1.97 | 0.00 | 96 | 1009.5 |
| 20260503020118 | 51 | 117 | 0.0 | 0.0 | 0.00 | 1.97 | 0.00 | 96 | 1009.5 |
| 20260503015123 | 51 | 117 | 0.0 | 0.0 | 0.00 | 1.97 | 0.00 | 96 | 1009.5 |
| 20260503014117 | 51 | 117 | 0.0 | 0.0 | 0.00 | 1.97 | 0.00 | 96 | 1009.6 |
| 20260503013129 | 51 | 117 | 0.0 | 0.0 | 0.00 | 1.97 | 0.00 | 96 | 1009.6 |
| 20260503012119 | 51 | 117 | 0.0 | 0.0 | 0.00 | 1.97 | 0.00 | 96 | 1009.7 |
| 20260503011125 | 51 | 116 | 0.0 | 0.0 | 0.00 | 1.97 | 0.00 | 96 | 1009.8 |
| 20260503010118 | 51 | 117 | 0.0 | 0.0 | 0.00 | 1.97 | 0.00 | 96 | 1009.8 |
| 20260503005131 | 51 | 116 | 0.0 | 0.0 | 0.00 | 1.97 | 0.00 | 96 | 1010.0 |
| 20260503004117 | 51 | 117 | 0.0 | 0.0 | 0.00 | 1.97 | 0.00 | 96 | 1010.1 |
| 20260503003130 | 51 | 117 | 0.0 | 0.0 | 0.00 | 1.97 | 0.00 | 96 | 1010.2 |
| 20260503002116 | 51 | 117 | 0.0 | 0.0 | 0.00 | 1.97 | 0.00 | 96 | 1010.2 |
| 20260503001130 | 51 | 117 | 0.0 | 0.0 | 0.00 | 1.97 | 0.00 | 96 | 1010.2 |
| 20260503000143 | 51 | 117 | 0.0 | 0.0 | 0.00 | 1.97 | 0.00 | 96 | 1010.3 |
| 20260502235134 | 50 | 117 | 0.0 | 0.0 | 0.00 | 1.97 | 0.00 | 96 | 1010.3 |
| 20260502234117 | 50 | 117 | 0.0 | 0.0 | 0.00 | 1.97 | 0.00 | 95 | 1010.3 |
| 20260502233130 | 50 | 117 | 0.0 | 0.0 | 0.00 | 1.97 | 0.00 | 95 | 1010.3 |
| 20260502232115 | 51 | 117 | 0.0 | 0.0 | 0.00 | 1.97 | 0.00 | 95 | 1010.2 |
| 20260502231128 | 51 | 117 | 0.0 | 0.0 | 0.00 | 1.97 | 0.39 | 95 | 1010.2 |
| 20260502230114 | 51 | 117 | 0.0 | 0.0 | 0.00 | 1.97 | 0.39 | 95 | 1010.2 |
| 20260502225128 | 52 | 117 | 0.0 | 1.0 | 0.00 | 1.97 | 0.39 | 95 | 1010.3 |
| 20260502224114 | 52 | 117 | 0.0 | 0.0 | 0.00 | 1.97 | 0.39 | 95 | 1010.6 |
| 20260502223126 | 52 | 116 | 0.0 | 0.0 | 0.00 | 1.97 | 0.39 | 95 | 1010.5 |
| 20260502222138 | 52 | 117 | 0.0 | 0.0 | 0.00 | 1.97 | 0.39 | 95 | 1010.4 |
| 20260502221125 | 52 | 117 | 0.0 | 0.0 | 0.00 | 1.97 | 0.39 | 95 | 1010.5 |
| 20260502220119 | 52 | 116 | 0.0 | 1.0 | 0.00 | 1.97 | 0.39 | 95 | 1010.6 |
| 20260502215125 | 52 | 117 | 0.0 | 0.0 | 0.00 | 1.97 | 0.39 | 95 | 1010.7 |
| 20260502214119 | 52 | 117 | 0.0 | 0.0 | 0.00 | 1.97 | 0.39 | 95 | 1010.6 |
| 20260502213124 | 52 | 117 | 0.0 | 0.0 | 0.00 | 1.97 | 0.39 | 95 | 1010.7 |
| 20260502212118 | 52 | 117 | 0.0 | 0.0 | 0.00 | 1.97 | 0.39 | 95 | 1010.7 |
| 20260502211131 | 52 | 116 | 0.0 | 0.0 | 0.00 | 1.97 | 0.39 | 95 | 1010.6 |
| 20260502210137 | 52 | 117 | 0.0 | 0.0 | 0.00 | 1.97 | 0.39 | 95 | 1010.6 |
| 20260502205129 | 52 | 117 | 0.0 | 0.0 | 0.00 | 1.97 | 0.39 | 95 | 1010.6 |
| 20260502204142 | 52 | 117 | 0.0 | 0.0 | 0.00 | 1.97 | 0.39 | 95 | 1010.5 |
| 20260502203134 | 52 | 117 | 0.0 | 0.0 | 0.00 | 1.97 | 0.39 | 95 | 1010.4 |
| 20260502202140 | 52 | 117 | 0.0 | 0.0 | 0.00 | 1.97 | 0.39 | 95 | 1010.3 |
| 20260502201112 | 52 | 117 | 0.0 | 1.0 | 0.00 | 1.97 | 0.39 | 95 | 1010.4 |
| 20260502200118 | 52 | 117 | 0.0 | 0.0 | 0.00 | 1.97 | 0.39 | 95 | 1010.3 |
| 20260502195115 | 52 | 117 | 0.0 | 0.0 | 0.00 | 1.97 | 0.39 | 94 | 1010.4 |
| 20260502194129 | 52 | 117 | 0.0 | 0.0 | 0.00 | 1.97 | 0.39 | 94 | 1010.4 |
| 20260502193115 | 52 | 117 | 0.0 | 0.0 | 0.00 | 1.97 | 0.39 | 94 | 1010.4 |
| 20260502192127 | 52 | 117 | 0.0 | 0.0 | 0.00 | 1.97 | 0.39 | 94 | 1010.4 |
| 20260502191140 | 53 | 117 | 0.0 | 0.0 | 0.00 | 1.97 | 0.39 | 94 | 1010.5 |
| 20260502190124 | 53 | 117 | 0.0 | 1.0 | 0.00 | 1.97 | 0.39 | 94 | 1010.6 |
| 20260502185115 | 53 | 117 | 0.0 | 1.0 | 0.00 | 1.97 | 0.39 | 94 | 1010.6 |
| 20260502184129 | 53 | 117 | 0.0 | 1.0 | 0.00 | 1.97 | 0.39 | 94 | 1010.7 |
| 20260502183143 | 53 | 111 | 0.0 | 0.0 | 0.00 | 1.97 | 0.39 | 94 | 1010.8 |
| 20260502182127 | 53 | 111 | 0.0 | 0.0 | 0.00 | 1.97 | 0.39 | 94 | 1010.7 |
| 20260502181117 | 53 | 111 | 0.0 | 0.0 | 0.00 | 1.97 | 0.39 | 93 | 1010.8 |
| 20260502180123 | 53 | 111 | 0.0 | 0.0 | 0.00 | 1.97 | 0.39 | 94 | 1010.9 |
| 20260502170132 | 53 | 111 | 0.0 | 0.0 | 0.16 | 1.97 | 0.39 | 93 | 1011.6 |
| 20260502164130 | 52 | 111 | 0.0 | 0.0 | 0.24 | 1.93 | 0.39 | 93 | 1011.8 |
| 20260502162135 | 52 | 111 | 0.0 | 0.0 | 0.31 | 1.85 | 0.37 | 93 | 1011.9 |
| 20260502161144 | 52 | 111 | 0.0 | 0.0 | 0.35 | 1.81 | 0.36 | 93 | 1012.1 |
| 20260502160136 | 52 | 111 | 0.0 | 0.0 | 0.43 | 1.77 | 0.35 | 93 | 1012.2 |
| 20260502152114 | 52 | 111 | 0.0 | 2.0 | 0.59 | 1.50 | 0.30 | 92 | 1012.6 |
| 20260502151127 | 52 | 120 | 0.0 | 1.0 | 0.67 | 1.46 | 0.29 | 92 | 1012.7 |
| 20260502150112 | 52 | 136 | 0.0 | 1.0 | 0.71 | 1.34 | 0.27 | 92 | 1012.8 |
| 20260502140116 | 53 | 122 | 0.0 | 0.0 | 0.55 | 0.63 | 0.13 | 89 | 1013.3 |
| 20260502130125 | 55 | 117 | 0.0 | 0.0 | 0.08 | 0.08 | 0.02 | 84 | 1013.5 |
| 20260502123138 | 57 | 109 | 0.0 | 1.0 | 0.04 | 0.04 | 0.01 | 82 | 1013.9 |
| 20260502122150 | 57 | 101 | 0.0 | 0.0 | 0.04 | 0.04 | 0.01 | 80 | 1014.1 |
| 20260502121115 | 58 | 110 | 0.0 | 1.0 | 0.00 | 0.00 | 0.00 | 78 | 1014.3 |
| 20260502120130 | 59 | 111 | 0.0 | 1.0 | 0.00 | 0.00 | 0.00 | 74 | 1014.4 |
| 20260502115115 | 59 | 108 | 0.0 | 1.0 | 0.00 | 0.00 | 0.00 | 71 | 1014.6 |
| 20260502114128 | 60 | 117 | 0.0 | 2.0 | 0.00 | 0.00 | 0.00 | 70 | 1014.7 |
| 20260502113115 | 62 | 149 | 0.0 | 2.0 | 0.00 | 0.00 | 0.00 | 68 | 1014.8 |
| 20260502112128 | 62 | 113 | 0.0 | 3.0 | 0.00 | 0.00 | 0.00 | 68 | 1014.8 |
| 20260502111114 | 63 | 105 | 0.0 | 1.0 | 0.00 | 0.04 | 0.00 | 68 | 1015.0 |
| 20260502110125 | 63 | 111 | 0.0 | 2.0 | 0.00 | 0.04 | 0.00 | 68 | 1014.9 |
| 20260502105121 | 63 | 110 | 0.0 | 1.0 | 0.00 | 0.04 | 0.00 | 70 | 1015.2 |
| 20260502104127 | 62 | 127 | 0.0 | 1.0 | 0.00 | 0.04 | 0.00 | 74 | 1015.2 |
| 20260502103119 | 61 | 97 | 0.0 | 1.0 | 0.00 | 0.04 | 0.00 | 75 | 1015.3 |
| 20260502102131 | 60 | 99 | 0.0 | 1.0 | 0.00 | 0.04 | 0.00 | 76 | 1015.5 |
| 20260502101117 | 60 | 111 | 0.0 | 1.0 | 0.00 | 0.12 | 0.00 | 75 | 1015.7 |
| 20260502100110 | 61 | 84 | 0.0 | 1.0 | 0.00 | 0.12 | 0.00 | 76 | 1016.1 |
| 20260502091121 | 60 | 99 | 0.0 | 1.0 | 0.00 | 0.12 | 0.00 | 79 | 1016.0 |
| 20260502090127 | 60 | 113 | 0.0 | 3.0 | 0.00 | 0.12 | 0.00 | 80 | 1016.1 |
| 20260502071140 | 52 | 98 | 0.0 | 0.0 | 0.00 | 0.12 | 0.00 | 93 | 1016.8 |
| 20260502070110 | 52 | 98 | 0.0 | 0.0 | 0.00 | 0.12 | 0.00 | 94 | 1016.8 |
| 20260502065123 | 51 | 98 | 0.0 | 0.0 | 0.00 | 0.12 | 0.00 | 94 | 1017.0 |
| 20260502064135 | 51 | 98 | 0.0 | 0.0 | 0.00 | 0.12 | 0.00 | 94 | 1016.8 |
| 20260502063121 | 50 | 98 | 0.0 | 0.0 | 0.00 | 0.12 | 0.00 | 94 | 1016.9 |
| 20260502062113 | 50 | 98 | 0.0 | 0.0 | 0.00 | 0.12 | 0.00 | 94 | 1016.8 |